Location: Bijele Vode
(45.2833°N, 16.2000°E)
Time: 20:48:22
(UTC+00:00)

NOSS 3-2 (C) - Pass Details

Date: 18 September 2020
Orbit: 795 x 1418 km, 63.4° (Epoch: 25 October)

Event Time Altitude Azimuth Distance (km) Brightness Sun altitude
Rises 18:45:06 0° 322° (NW) 3,915 7.7 -18.8°
Reaches altitude 10° 18:47:42 10° 327° (NNW) 3,042 6.9 -19.3°
Maximum altitude 18:55:00 57° 45° (NE) 1,463 4.2 -20.4°
Enters shadow 18:58:45 33° 108° (ESE) 2,065 4.6 -21.0°
